This demonstration page uses our WeatherBlox Daily Observations layout. Learn more.

Left ArrowRight Arrow

Hourly Observations for November 21, 2020

Temp ( °F °C ) Dew Point ( °F °C ) Humidity (%) Winds ( mph kmh ) Pressure ( in mb ) Visibility ( mi km ) Precip ( " mm )
12:51 am 00:51 Clear 54 12.2 33 0.6 45 45 Calm 30.04 1017 10 16 0.00 0.00
1:51 am 01:51 Clear 51 10.6 32 0 48 48 ENE 3 6 30.04 1017 10 16 0.00 0.00
2:51 am 02:51 Clear 55 12.8 36 2.2 49 49 ENE 3 6 30.01 1016 10 16 0.00 0.00
3:51 am 03:51 Clear 50 10 32 0 50 50 Calm 30.02 1017 10 16 0.00 0.00
4:51 am 04:51 Clear 50 10 34 1.1 54 54 Calm 30.03 1017 10 16 0.00 0.00
5:51 am 05:51 Clear 48 8.9 34 1.1 58 58 SE 3 6 30.04 1017 10 16 0.00 0.00
6:51 am 06:51 Clear 49 9.4 33 0.6 55 55 Calm 30.07 1018 10 16 0.00 0.00
7:51 am 07:51 Sunny 51 10.6 34 1.1 52 52 Calm 30.09 1019 10 16 0.00 0.00
8:51 am 08:51 Sunny 59 15 38 3.3 46 46 Calm 30.09 1019 10 16 0.00 0.00
9:51 am 09:51 Sunny 64 17.8 38 3.3 38 38 Calm 30.10 1019 10 16 0.00 0.00
10:51 am 10:51 Sunny 68 20 39 3.9 35 35 VRB 3 6 30.08 1019 10 16 0.00 0.00
11:51 am 11:51 Sunny 72 22.2 39 3.9 30 30 Calm 30.03 1017 10 16 0.00 0.00
12:51 pm 12:51 Sunny 75 23.9 38 3.3 26 26 S 5 7 30.00 1016 10 16 0.00 0.00
1:51 pm 13:51 Sunny 76 24.4 38 3.3 25 25 Calm 29.98 1015 10 16 0.00 0.00
2:51 pm 14:51 Sunny 78 25.6 37 2.8 23 23 W 3 6 29.95 1014 10 16 0.00 0.00
3:51 pm 15:51 Sunny 78 25.6 38 3.3 24 24 WNW 5 7 29.95 1014 10 16 0.00 0.00
4:51 pm 16:51 Sunny 73 22.8 37 2.8 27 27 WNW 5 7 29.96 1015 10 16 0.00 0.00
5:51 pm 17:51 Clear 67 19.4 37 2.8 33 33 NNW 8 13 29.98 1015 10 16 0.00 0.00
6:51 pm 18:51 Clear 65 18.3 38 3.3 37 37 NNW 5 7 29.99 1016 10 16 0.00 0.00
7:51 pm 19:51 Clear 61 16.1 36 2.2 39 39 E 3 6 30.01 1016 10 16 0.00 0.00
8:51 pm 20:51 Clear 62 16.7 37 2.8 40 40 ESE 6 9 29.99 1016 10 16 0.00 0.00
9:51 pm 21:51 Clear 57 13.9 36 2.2 45 45 E 3 6 30.00 1016 10 16 0.00 0.00
10:51 pm 22:51 Clear 55 12.8 36 2.2 49 49 Calm 29.99 1016 10 16 0.00 0.00
11:51 pm 23:51 Clear 53 11.7 34 1.1 48 48 Calm 29.98 1015 10 16 0.00 0.00

Powered by AerisWeather